Scottsdale, AZ

4:06 PM MST on April 26, 2017 (GMT -0700)
Scottsdale

Weather History for KSDL - March, 2013

Change the Weather History Date:

Thursday, March 21, 2013

  Actual Average Record
Temperature  
Mean Temperature 72 °F -  
Max Temperature 82 °F 76 °F 93 °F (2004)
Min Temperature 62 °F 52 °F 44 °F (2012)
Cooling Degree Days 7    
Growing Degree Days 22 (Base 50)    
Moisture  
Dew Point 36 °F    
Average Humidity 27    
Maximum Humidity 48    
Minimum Humidity 16    
Precipitation  
Precipitation 0.00 in - - ()
Sea Level Pressure  
Sea Level Pressure 29.70 in    
Wind  
Wind Speed 2 mph (WSW)    
Max Wind Speed 10 mph    
Max Gust Speed -    
Visibility 10 miles    
Events      
Averages and records for this station are not official NWS values.
T = Trace of Precipitation, MM = Missing Value Source: NWS Daily Summary

Daily Weather History Graph

Daily Weather History Graph

Search for Another Location

Airport or City:

Trip Planner

Search our weather history database for the weather conditions in past years. The results will help you decide how hot, cold, wet, or windy it might be!

Date:

Astronomy

Mar. 21, 2013 Rise Set
Actual Time 6:29 AM MST 6:40 PM MST
Civil Twilight 6:04 AM MST 7:05 PM MST
Nautical Twilight 5:35 AM MST 7:34 PM MST
Astronomical Twilight 5:06 AM MST 8:03 PM MST
Moon 1:27 PM MST (3/21) 2:39 AM MST (3/21)
Length of Visible Light 13h 00m
Length of Day
12h 10m
Waxing Gibbous, 69% of the Moon is Illuminated
Mar 21
Waxing Gibbous
Mar 27
Full
Apr 2
Last Quarter
Apr 10
New
Apr 18
First Quarter

Hourly Weather History & Observations

Time (MST) Temp. Dew Point Humidity Pressure Visibility Wind Dir Wind Speed Gust Speed Precip Events Conditions
12:53 AM 66.9 °F 39.9 °F 37% 29.75 in 10.0 mi Calm Calm - N/A   Clear
1:53 AM 66.9 °F 39.0 °F 36% 29.74 in 10.0 mi Calm Calm - N/A   Clear
2:53 AM 66.9 °F 37.0 °F 33% 29.73 in 10.0 mi Calm Calm - N/A   Clear
3:53 AM 66.0 °F 37.9 °F 36% 29.73 in 10.0 mi Calm Calm - N/A   Clear
4:53 AM 66.0 °F 39.0 °F 37% 29.71 in 10.0 mi Calm Calm - N/A   Clear
5:53 AM 64.9 °F 39.0 °F 39% 29.72 in 10.0 mi Calm Calm - N/A   Clear
6:53 AM 62.1 °F 42.1 °F 48% 29.73 in 9.0 mi Calm Calm - N/A   Clear
7:53 AM 64.9 °F 42.1 °F 43% 29.75 in 10.0 mi Calm Calm - N/A   Clear
8:53 AM 70.0 °F 37.0 °F 30% 29.75 in 10.0 mi East 3.5 mph - N/A   Clear
9:53 AM 73.0 °F 37.0 °F 27% 29.76 in 10.0 mi Calm Calm - N/A   Clear
10:53 AM 75.0 °F 35.1 °F 23% 29.75 in 10.0 mi NW 4.6 mph - N/A   Clear
11:53 AM 77.0 °F 35.1 °F 22% 29.74 in 10.0 mi Calm Calm - N/A   Clear
12:53 PM 78.1 °F 35.1 °F 21% 29.73 in 10.0 mi WSW 5.8 mph - N/A   Clear
1:53 PM 82.0 °F 34.0 °F 18% 29.69 in 10.0 mi SSW 10.4 mph - N/A   Clear
2:53 PM 80.1 °F 32.0 °F 17% 29.67 in 10.0 mi West 9.2 mph - N/A   Clear
3:53 PM 81.0 °F 32.0 °F 17% 29.65 in 10.0 mi SSW 5.8 mph - N/A   Clear
4:53 PM 81.0 °F 30.9 °F 16% 29.64 in 10.0 mi WSW 5.8 mph - N/A   Clear
5:53 PM 80.1 °F 32.0 °F 17% 29.64 in 10.0 mi SSW 4.6 mph - N/A   Clear
6:53 PM 78.1 °F 32.0 °F 19% 29.64 in 10.0 mi Calm Calm - N/A   Clear
7:53 PM 75.9 °F 33.1 °F 21% 29.65 in 10.0 mi Calm Calm - N/A   Clear
8:53 PM 73.9 °F 33.1 °F 22% 29.66 in 10.0 mi Calm Calm - N/A   Clear
9:53 PM 72.0 °F 34.0 °F 25% 29.67 in 10.0 mi Calm Calm - N/A   Clear
10:53 PM 71.1 °F 35.1 °F 27% 29.66 in 10.0 mi NW 3.5 mph - N/A   Clear
11:53 PM 70.0 °F 35.1 °F 28% 29.65 in 10.0 mi NNW 3.5 mph - N/A   Clear